Weather Roundup
Issued by NWS Springfield, MO

Home | Current Version | Previous Version | Text Only | Print | Product List | Glossary On
Versions: 1 2 3 4 5 6 7 8 9 10 11 12 13 14 15 16 17 18 19 20 21 22 23 24 25 26 27 28 29 30 31 32 33 34 35 36 37 38 39 40 41 42 43 44 45 46 47 48 49 50
000
NZUS99 KSGF 290507
HRRSGF

HOURLY WEATHER
NATIONAL WEATHER SERVICE SPRINGFIELD MO
1200 AM CDT FRI AUG 29 2014

......SGF CWA......

CITY           SKY/WX    TMP DP  RH WIND       PRES   REMARKS
SPRINGFIELD    CLEAR     75  60  59 S8        29.95S
JOPLIN         CLEAR     78  63  59 S12       29.92S
WEST PLAINS    CLEAR     76  63  64 S5        30.01R
ROLLA          CLEAR     75  67  76 SE10      29.96S
OSAGE BEACH    CLEAR     75  63  64 SE5       29.94S
BRANSON        MOCLDY    77  63  61 SE7       29.99R

......SURROUNDING SGF CWA......

CITY           SKY/WX    TMP DP  RH WIND       PRES   REMARKS
CHANUTE        PTCLDY    75  61  61 S8        29.90S
PARSONS        PTCLDY    75  62  64 SE3       29.91S
COFFEYVILLE    PTCLDY    75  64  68 S6        29.90R
EMPORIA        CLOUDY    77  65  66 S13       29.89R
GROVE OK       CLEAR     79  63  57 S6        29.93S
ROGERS AR      CLEAR     75  64  68 SE7       29.98S
HARRISON AR    CLEAR     70  66  87 SE3       29.99S
NEAR YELLVILLE CLEAR     73  59  60 CALM      29.97S

......KANSAS AND MISSOURI......

CITY           SKY/WX    TMP DP  RH WIND       PRES   REMARKS
KANSAS CTY INT PTCLDY    72  64  76 S8        29.89S
DOWNTOWN KC    CLEAR     80  64  58 S7        29.88S
COLUMBIA       CLEAR     76  71  85 SE8       29.94S
SEDALIA        CLEAR     75  64  68 S9        29.91S
ST JOSEPH      MOCLDY    75  70  84 SE6       29.87S
ST LOUIS       MOCLDY    78  71  79 E7        29.99S
SPIRIT OF STL  MOCLDY    76  70  82 VRB3      29.96S
KIRKSVILLE     CLEAR     73  70  90 E9        29.95S
WICHITA        CLOUDY    69  65  86 VRB5      29.90R
TOPEKA         MOCLDY    81  64  56 S6        29.87S
OLATHE         CLEAR     75  64  68 S3        29.90R

......TENNESSEE......

CITY           SKY/WX    TMP DP  RH WIND       PRES   REMARKS
MEMPHIS        PTCLDY    84  69  60 E7        29.97S
NASHVILLE      PTCLDY    76  72  87 CALM      30.01F

......ARKANSAS.......

CITY           SKY/WX    TMP DP  RH WIND       PRES   REMARKS
FAYETTEVILLE   CLEAR     68  65  90 S5        29.97S
FT SMITH       PTCLDY    79  68  69 CALM      29.92S
LITTLE ROCK    PTCLDY    76  67  73 SE5       29.95S

......OKLAHOMA.......

CITY           SKY/WX    TMP DP  RH WIND       PRES   REMARKS
TULSA          PTCLDY    81  66  60 SE5       29.88F
PONCA CITY     CLOUDY    71  68  90 SE8       29.90S
MCALESTER      CLEAR     79  68  69 SE5       29.92S
OKLAHOMA CITY  LGT RAIN  71  63  75 SW10      29.94F

......IOWA............

CITY           SKY/WX    TMP DP  RH WIND       PRES   REMARKS
DES MOINES     CLOUDY    70  68  93 E3        29.92F
QUAD CITIES    PTCLDY    69  66  90 SE7       29.97F

......ILLINOIS........

CITY           SKY/WX    TMP DP  RH WIND       PRES   REMARKS
QUINCY         PTCLDY    72  68  87 SE10      29.97S
CHICAGO        CLOUDY    70  63  78 SE8       30.03F



USA.gov is the U.S. government's official web portal to all federal, state and local government web resources and services.